Year,Month,Day,Hour,Minute,Value (Times are PST for insolation in W/m^2)
2022,08,15,00,00,0.00
2022,08,15,00,01,0.00
2022,08,15,00,02,0.00
2022,08,15,00,03,0.00
2022,08,15,00,04,0.00
2022,08,15,00,05,0.00
2022,08,15,00,06,0.00
2022,08,15,00,07,0.00
2022,08,15,00,08,0.00
2022,08,15,00,09,0.00
2022,08,15,00,10,0.00
2022,08,15,00,11,0.00
2022,08,15,00,12,0.00
2022,08,15,00,13,0.00
2022,08,15,00,14,0.00
2022,08,15,00,15,0.00
2022,08,15,00,16,0.00
2022,08,15,00,17,0.00
2022,08,15,00,18,0.00
2022,08,15,00,19,0.00
2022,08,15,00,20,0.00
2022,08,15,00,21,0.00
2022,08,15,00,22,0.00
2022,08,15,00,23,0.00
2022,08,15,00,24,0.00
2022,08,15,00,25,0.00
2022,08,15,00,26,0.00
2022,08,15,00,27,0.00
2022,08,15,00,28,0.00
2022,08,15,00,29,0.00
2022,08,15,00,30,0.00
2022,08,15,00,31,0.00
2022,08,15,00,32,0.00
2022,08,15,00,33,0.00
2022,08,15,00,34,0.00
2022,08,15,00,35,0.00
2022,08,15,00,36,0.00
2022,08,15,00,37,0.00
2022,08,15,00,38,0.00
2022,08,15,00,39,0.00
2022,08,15,00,40,0.00
2022,08,15,00,41,0.00
2022,08,15,00,42,0.00
2022,08,15,00,43,0.00
2022,08,15,00,44,0.00
2022,08,15,00,45,0.00
2022,08,15,00,46,0.00
2022,08,15,00,47,0.00
2022,08,15,00,48,0.00
2022,08,15,00,49,0.00
2022,08,15,00,50,0.00
2022,08,15,00,51,0.00
2022,08,15,00,52,0.00
2022,08,15,00,53,0.00
2022,08,15,00,54,0.00
2022,08,15,00,55,0.00
2022,08,15,00,56,0.00
2022,08,15,00,57,0.00
2022,08,15,00,58,0.00
2022,08,15,00,59,0.00
2022,08,15,01,00,0.00
2022,08,15,01,01,0.00
2022,08,15,01,02,0.00
2022,08,15,01,03,0.00
2022,08,15,01,04,0.00
2022,08,15,01,05,0.00
2022,08,15,01,06,0.00
2022,08,15,01,07,0.00
2022,08,15,01,08,0.00
2022,08,15,01,09,0.00
2022,08,15,01,10,0.00
2022,08,15,01,11,0.00
2022,08,15,01,12,0.00
2022,08,15,01,13,0.00
2022,08,15,01,14,0.00
2022,08,15,01,15,0.00
2022,08,15,01,16,0.00
2022,08,15,01,17,0.00
2022,08,15,01,18,0.00
2022,08,15,01,19,0.00
2022,08,15,01,20,0.00
2022,08,15,01,21,0.00
2022,08,15,01,22,0.00
2022,08,15,01,23,0.00
2022,08,15,01,24,0.00
2022,08,15,01,25,0.00
2022,08,15,01,26,0.00
2022,08,15,01,27,0.00
2022,08,15,01,28,0.00
2022,08,15,01,29,0.00
2022,08,15,01,30,0.00
2022,08,15,01,31,0.00
2022,08,15,01,32,0.00
2022,08,15,01,33,0.00
2022,08,15,01,34,0.00
2022,08,15,01,35,0.00
2022,08,15,01,36,0.00
2022,08,15,01,37,0.00
2022,08,15,01,38,0.00
2022,08,15,01,39,0.00
2022,08,15,01,40,0.00
2022,08,15,01,41,0.00
2022,08,15,01,42,0.00
2022,08,15,01,43,0.00
2022,08,15,01,44,0.00
2022,08,15,01,45,0.00
2022,08,15,01,46,0.00
2022,08,15,01,47,0.00
2022,08,15,01,48,0.00
2022,08,15,01,49,0.00
2022,08,15,01,50,0.00
2022,08,15,01,51,0.00
2022,08,15,01,52,0.00
2022,08,15,01,53,0.00
2022,08,15,01,54,0.00
2022,08,15,01,55,0.00
2022,08,15,01,56,0.00
2022,08,15,01,57,0.00
2022,08,15,01,58,0.00
2022,08,15,01,59,0.00
2022,08,15,02,00,0.00
2022,08,15,02,01,0.00
2022,08,15,02,02,0.00
2022,08,15,02,03,0.00
2022,08,15,02,04,0.00
2022,08,15,02,05,0.00
2022,08,15,02,06,0.00
2022,08,15,02,07,0.00
2022,08,15,02,08,0.00
2022,08,15,02,09,0.00
2022,08,15,02,10,0.00
2022,08,15,02,11,0.00
2022,08,15,02,12,0.00
2022,08,15,02,13,0.00
2022,08,15,02,14,0.00
2022,08,15,02,15,0.00
2022,08,15,02,16,0.00
2022,08,15,02,17,0.00
2022,08,15,02,18,0.00
2022,08,15,02,19,0.00
2022,08,15,02,20,0.00
2022,08,15,02,21,0.00
2022,08,15,02,22,0.00
2022,08,15,02,23,0.00
2022,08,15,02,24,0.00
2022,08,15,02,25,0.00
2022,08,15,02,26,0.00
2022,08,15,02,27,0.00
2022,08,15,02,28,0.00
2022,08,15,02,29,0.00
2022,08,15,02,30,0.00
2022,08,15,02,31,0.00
2022,08,15,02,32,0.00
2022,08,15,02,33,0.00
2022,08,15,02,34,0.00
2022,08,15,02,35,0.00
2022,08,15,02,36,0.00
2022,08,15,02,37,0.00
2022,08,15,02,38,0.00
2022,08,15,02,39,0.00
2022,08,15,02,40,0.00
2022,08,15,02,41,0.00
2022,08,15,02,42,0.00
2022,08,15,02,43,0.00
2022,08,15,02,44,0.00
2022,08,15,02,45,0.00
2022,08,15,02,46,0.00
2022,08,15,02,47,0.00
2022,08,15,02,48,0.00
2022,08,15,02,49,0.00
2022,08,15,02,50,0.00
2022,08,15,02,51,0.00
2022,08,15,02,52,0.00
2022,08,15,02,53,0.00
2022,08,15,02,54,0.00
2022,08,15,02,55,0.00
2022,08,15,02,56,0.00
2022,08,15,02,57,0.00
2022,08,15,02,58,0.00
2022,08,15,02,59,0.00
2022,08,15,03,00,0.00
2022,08,15,03,01,0.00
2022,08,15,03,02,0.00
2022,08,15,03,03,0.00
2022,08,15,03,04,0.00
2022,08,15,03,05,0.00
2022,08,15,03,06,0.00
2022,08,15,03,07,0.00
2022,08,15,03,08,0.00
2022,08,15,03,09,0.00
2022,08,15,03,10,0.00
2022,08,15,03,11,0.00
2022,08,15,03,12,0.00
2022,08,15,03,13,0.00
2022,08,15,03,14,0.00
2022,08,15,03,15,0.00
2022,08,15,03,16,0.00
2022,08,15,03,17,0.00
2022,08,15,03,18,0.00
2022,08,15,03,19,0.00
2022,08,15,03,20,0.00
2022,08,15,03,21,0.00
2022,08,15,03,22,0.00
2022,08,15,03,23,0.00
2022,08,15,03,24,0.00
2022,08,15,03,25,0.00
2022,08,15,03,26,0.00
2022,08,15,03,27,0.00
2022,08,15,03,28,0.00
2022,08,15,03,29,0.00
2022,08,15,03,30,0.00
2022,08,15,03,31,0.00
2022,08,15,03,32,0.00
2022,08,15,03,33,0.00
2022,08,15,03,34,0.00
2022,08,15,03,35,0.00
2022,08,15,03,36,0.00
2022,08,15,03,37,0.00
2022,08,15,03,38,0.00
2022,08,15,03,39,0.00
2022,08,15,03,40,0.00
2022,08,15,03,41,0.00
2022,08,15,03,42,0.00
2022,08,15,03,43,0.00
2022,08,15,03,44,0.00
2022,08,15,03,45,0.00
2022,08,15,03,46,0.00
2022,08,15,03,47,0.00
2022,08,15,03,48,0.00
2022,08,15,03,49,0.00
2022,08,15,03,50,0.00
2022,08,15,03,51,0.00
2022,08,15,03,52,0.00
2022,08,15,03,53,0.00
2022,08,15,03,54,0.00
2022,08,15,03,55,0.00
2022,08,15,03,56,0.00
2022,08,15,03,57,0.00
2022,08,15,03,58,0.00
2022,08,15,03,59,0.00
2022,08,15,04,00,0.00
2022,08,15,04,01,0.00
2022,08,15,04,02,0.00
2022,08,15,04,03,0.00
2022,08,15,04,04,0.00
2022,08,15,04,05,0.00
2022,08,15,04,06,0.00
2022,08,15,04,07,0.00
2022,08,15,04,08,0.00
2022,08,15,04,09,0.00
2022,08,15,04,10,0.00
2022,08,15,04,11,0.00
2022,08,15,04,12,0.00
2022,08,15,04,13,0.00
2022,08,15,04,14,0.00
2022,08,15,04,15,0.00
2022,08,15,04,16,0.00
2022,08,15,04,17,0.00
2022,08,15,04,18,0.00
2022,08,15,04,19,0.00
2022,08,15,04,20,0.00
2022,08,15,04,21,0.00
2022,08,15,04,22,0.00
2022,08,15,04,23,0.00
2022,08,15,04,24,0.00
2022,08,15,04,25,0.00
2022,08,15,04,26,0.00
2022,08,15,04,27,0.00
2022,08,15,04,28,0.00
2022,08,15,04,29,0.00
2022,08,15,04,30,0.00
2022,08,15,04,31,0.00
2022,08,15,04,32,0.00
2022,08,15,04,33,0.00
2022,08,15,04,34,0.00
2022,08,15,04,35,0.00
2022,08,15,04,36,0.00
2022,08,15,04,37,0.00
2022,08,15,04,38,0.00
2022,08,15,04,39,0.00
2022,08,15,04,40,0.00
2022,08,15,04,41,0.00
2022,08,15,04,42,0.00
2022,08,15,04,43,0.00
2022,08,15,04,44,0.00
2022,08,15,04,45,0.00
2022,08,15,04,46,0.00
2022,08,15,04,47,0.00
2022,08,15,04,48,0.00
2022,08,15,04,49,0.00
2022,08,15,04,50,0.00
2022,08,15,04,51,0.00
2022,08,15,04,52,0.00
2022,08,15,04,53,0.00
2022,08,15,04,54,0.00
2022,08,15,04,55,0.00
2022,08,15,04,56,0.00
2022,08,15,04,57,0.00
2022,08,15,04,58,0.00
2022,08,15,04,59,0.00
2022,08,15,05,00,0.00
2022,08,15,05,01,0.00
2022,08,15,05,02,0.00
2022,08,15,05,03,0.00
2022,08,15,05,04,0.00
2022,08,15,05,05,0.00
2022,08,15,05,06,0.00
2022,08,15,05,07,0.00
2022,08,15,05,08,0.00
2022,08,15,05,09,0.00
2022,08,15,05,10,0.00
2022,08,15,05,11,0.00
2022,08,15,05,12,0.00
2022,08,15,05,13,0.00
2022,08,15,05,14,0.00
2022,08,15,05,15,0.00
2022,08,15,05,16,0.00
2022,08,15,05,17,0.00
2022,08,15,05,18,0.00
2022,08,15,05,19,0.00
2022,08,15,05,20,0.00
2022,08,15,05,21,0.00
2022,08,15,05,22,0.00
2022,08,15,05,23,0.00
2022,08,15,05,24,0.00
2022,08,15,05,25,0.00
2022,08,15,05,26,0.00
2022,08,15,05,27,0.00
2022,08,15,05,28,0.00
2022,08,15,05,29,0.00
2022,08,15,05,30,0.00
2022,08,15,05,31,0.00
2022,08,15,05,32,0.00
2022,08,15,05,33,0.00
2022,08,15,05,34,0.00
2022,08,15,05,35,0.00
2022,08,15,05,36,0.00
2022,08,15,05,37,0.00
2022,08,15,05,38,0.00
2022,08,15,05,39,0.00
2022,08,15,05,40,0.00
2022,08,15,05,41,0.00
2022,08,15,05,42,0.00
2022,08,15,05,43,0.00
2022,08,15,05,44,0.00
2022,08,15,05,45,0.00
2022,08,15,05,46,0.00
2022,08,15,05,47,0.00
2022,08,15,05,48,0.00
2022,08,15,05,49,0.00
2022,08,15,05,50,0.00
2022,08,15,05,51,0.00
2022,08,15,05,52,0.00
2022,08,15,05,53,0.00
2022,08,15,05,54,0.00
2022,08,15,05,55,0.00
2022,08,15,05,56,0.00
2022,08,15,05,57,0.00
2022,08,15,05,58,0.00
2022,08,15,05,59,0.00
2022,08,15,06,00,0.00
2022,08,15,06,01,0.00
2022,08,15,06,02,0.00
2022,08,15,06,03,0.00
2022,08,15,06,04,0.00
2022,08,15,06,05,0.00
2022,08,15,06,06,0.00
2022,08,15,06,07,0.00
2022,08,15,06,08,3.00
2022,08,15,06,09,5.00
2022,08,15,06,10,5.00
2022,08,15,06,11,5.00
2022,08,15,06,12,5.00
2022,08,15,06,13,5.40
2022,08,15,06,14,7.00
2022,08,15,06,15,7.00
2022,08,15,06,16,7.00
2022,08,15,06,17,7.00
2022,08,15,06,18,8.50
2022,08,15,06,19,9.00
2022,08,15,06,20,10.90
2022,08,15,06,21,11.10
2022,08,15,06,22,12.00
2022,08,15,06,23,12.00
2022,08,15,06,24,12.90
2022,08,15,06,25,14.00
2022,08,15,06,26,14.00
2022,08,15,06,27,15.50
2022,08,15,06,28,16.00
2022,08,15,06,29,16.10
2022,08,15,06,30,18.00
2022,08,15,06,31,18.00
2022,08,15,06,32,18.40
2022,08,15,06,33,19.00
2022,08,15,06,34,19.00
2022,08,15,06,35,20.40
2022,08,15,06,36,21.00
2022,08,15,06,37,22.90
2022,08,15,06,38,23.00
2022,08,15,06,39,23.40
2022,08,15,06,40,25.30
2022,08,15,06,41,26.00
2022,08,15,06,42,27.00
2022,08,15,06,43,29.30
2022,08,15,06,44,31.50
2022,08,15,06,45,32.00
2022,08,15,06,46,32.90
2022,08,15,06,47,33.90
2022,08,15,06,48,39.80
2022,08,15,06,49,42.70
2022,08,15,06,50,44.90
2022,08,15,06,51,47.70
2022,08,15,06,52,50.30
2022,08,15,06,53,51.00
2022,08,15,06,54,52.80
2022,08,15,06,55,53.00
2022,08,15,06,56,53.60
2022,08,15,06,57,58.00
2022,08,15,06,58,64.00
2022,08,15,06,59,69.60
2022,08,15,07,00,76.40
2022,08,15,07,01,84.20
2022,08,15,07,02,90.10
2022,08,15,07,03,93.00
2022,08,15,07,04,97.60
2022,08,15,07,05,102.70
2022,08,15,07,06,106.40
2022,08,15,07,07,109.00
2022,08,15,07,08,107.90
2022,08,15,07,09,99.00
2022,08,15,07,10,82.60
2022,08,15,07,11,79.00
2022,08,15,07,12,77.00
2022,08,15,07,13,75.60
2022,08,15,07,14,73.50
2022,08,15,07,15,76.10
2022,08,15,07,16,86.40
2022,08,15,07,17,98.30
2022,08,15,07,18,108.90
2022,08,15,07,19,111.00
2022,08,15,07,20,126.70
2022,08,15,07,21,131.30
2022,08,15,07,22,142.90
2022,08,15,07,23,146.00
2022,08,15,07,24,144.00
2022,08,15,07,25,137.40
2022,08,15,07,26,127.20
2022,08,15,07,27,131.10
2022,08,15,07,28,132.40
2022,08,15,07,29,122.10
2022,08,15,07,30,128.50
2022,08,15,07,31,114.30
2022,08,15,07,32,98.00
2022,08,15,07,33,96.70
2022,08,15,07,34,86.10
2022,08,15,07,35,82.30
2022,08,15,07,36,84.00
2022,08,15,07,37,68.90
2022,08,15,07,38,52.60
2022,08,15,07,39,39.80
2022,08,15,07,40,39.00
2022,08,15,07,41,41.60
2022,08,15,07,42,56.10
2022,08,15,07,43,56.30
2022,08,15,07,44,45.50
2022,08,15,07,45,39.90
2022,08,15,07,46,37.20
2022,08,15,07,47,40.20
2022,08,15,07,48,49.30
2022,08,15,07,49,59.70
2022,08,15,07,50,67.90
2022,08,15,07,51,65.10
2022,08,15,07,52,73.30
2022,08,15,07,53,142.00
2022,08,15,07,54,213.30
2022,08,15,07,55,225.50
2022,08,15,07,56,234.90
2022,08,15,07,57,239.60
2022,08,15,07,58,242.20
2022,08,15,07,59,245.00
2022,08,15,08,00,247.20
2022,08,15,08,01,249.40
2022,08,15,08,02,250.80
2022,08,15,08,03,252.90
2022,08,15,08,04,257.10
2022,08,15,08,05,258.40
2022,08,15,08,06,261.30
2022,08,15,08,07,265.20
2022,08,15,08,08,269.10
2022,08,15,08,09,272.90
2022,08,15,08,10,268.80
2022,08,15,08,11,253.40
2022,08,15,08,12,227.70
2022,08,15,08,13,247.80
2022,08,15,08,14,256.70
2022,08,15,08,15,254.70
2022,08,15,08,16,258.90
2022,08,15,08,17,258.90
2022,08,15,08,18,258.00
2022,08,15,08,19,302.80
2022,08,15,08,20,313.20
2022,08,15,08,21,315.30
2022,08,15,08,22,318.90
2022,08,15,08,23,323.50
2022,08,15,08,24,327.80
2022,08,15,08,25,331.60
2022,08,15,08,26,335.30
2022,08,15,08,27,338.20
2022,08,15,08,28,342.30
2022,08,15,08,29,345.80
2022,08,15,08,30,347.00
2022,08,15,08,31,354.00
2022,08,15,08,32,354.00
2022,08,15,08,33,355.10
2022,08,15,08,34,348.40
2022,08,15,08,35,285.00
2022,08,15,08,36,229.10
2022,08,15,08,37,202.10
2022,08,15,08,38,199.60
2022,08,15,08,39,204.40
2022,08,15,08,40,190.90
2022,08,15,08,41,179.50
2022,08,15,08,42,145.90
2022,08,15,08,43,128.70
2022,08,15,08,44,138.80
2022,08,15,08,45,119.00
2022,08,15,08,46,108.40
2022,08,15,08,47,134.10
2022,08,15,08,48,151.00
2022,08,15,08,49,145.40
2022,08,15,08,50,144.60
2022,08,15,08,51,212.30
2022,08,15,08,52,255.00
2022,08,15,08,53,337.20
2022,08,15,08,54,382.20
2022,08,15,08,55,378.50
2022,08,15,08,56,357.40
2022,08,15,08,57,367.80
2022,08,15,08,58,375.20
2022,08,15,08,59,383.70
2022,08,15,09,00,421.10
2022,08,15,09,01,370.70
2022,08,15,09,02,345.00
2022,08,15,09,03,339.70
2022,08,15,09,04,348.60
2022,08,15,09,05,461.70
2022,08,15,09,06,423.40
2022,08,15,09,07,403.10
2022,08,15,09,08,428.10
2022,08,15,09,09,452.00
2022,08,15,09,10,378.80
2022,08,15,09,11,323.60
2022,08,15,09,12,302.30
2022,08,15,09,13,325.00
2022,08,15,09,14,467.70
2022,08,15,09,15,464.70
2022,08,15,09,16,466.80
2022,08,15,09,17,455.20
2022,08,15,09,18,468.90
2022,08,15,09,19,483.00
2022,08,15,09,20,423.40
2022,08,15,09,21,420.10
2022,08,15,09,22,514.10
2022,08,15,09,23,519.00
2022,08,15,09,24,522.30
2022,08,15,09,25,534.30
2022,08,15,09,26,507.80
2022,08,15,09,27,512.40
2022,08,15,09,28,533.70
2022,08,15,09,29,527.10
2022,08,15,09,30,531.00
2022,08,15,09,31,551.20
2022,08,15,09,32,507.00
2022,08,15,09,33,494.80
2022,08,15,09,34,466.40
2022,08,15,09,35,438.70
2022,08,15,09,36,462.40
2022,08,15,09,37,512.20
2022,08,15,09,38,519.00
2022,08,15,09,39,535.60
2022,08,15,09,40,624.30
2022,08,15,09,41,600.20
2022,08,15,09,42,592.00
2022,08,15,09,43,494.20
2022,08,15,09,44,462.90
2022,08,15,09,45,486.60
2022,08,15,09,46,489.00
2022,08,15,09,47,351.40
2022,08,15,09,48,323.70
2022,08,15,09,49,349.80
2022,08,15,09,50,384.00
2022,08,15,09,51,362.30
2022,08,15,09,52,376.10
2022,08,15,09,53,350.70
2022,08,15,09,54,326.90
2022,08,15,09,55,326.90
2022,08,15,09,56,329.40
2022,08,15,09,57,334.90
2022,08,15,09,58,349.30
2022,08,15,09,59,373.10
2022,08,15,10,00,379.20
2022,08,15,10,01,369.00
2022,08,15,10,02,380.30
2022,08,15,10,03,385.00
2022,08,15,10,04,386.90
2022,08,15,10,05,406.60
2022,08,15,10,06,387.00
2022,08,15,10,07,387.40
2022,08,15,10,08,390.90
2022,08,15,10,09,394.00
2022,08,15,10,10,460.50
2022,08,15,10,11,448.00
2022,08,15,10,12,421.40
2022,08,15,10,13,368.40
2022,08,15,10,14,364.00
2022,08,15,10,15,364.90
2022,08,15,10,16,363.60
2022,08,15,10,17,357.90
2022,08,15,10,18,363.30
2022,08,15,10,19,388.50
2022,08,15,10,20,380.70
2022,08,15,10,21,350.90
2022,08,15,10,22,348.00
2022,08,15,10,23,348.00
2022,08,15,10,24,351.30
2022,08,15,10,25,353.60
2022,08,15,10,26,339.30
2022,08,15,10,27,325.70
2022,08,15,10,28,320.60
2022,08,15,10,29,320.00
2022,08,15,10,30,332.00
2022,08,15,10,31,340.20
2022,08,15,10,32,369.60
2022,08,15,10,33,377.50
2022,08,15,10,34,387.50
2022,08,15,10,35,450.30
2022,08,15,10,36,487.00
2022,08,15,10,37,428.30
2022,08,15,10,38,415.00
2022,08,15,10,39,415.00
2022,08,15,10,40,415.00
2022,08,15,10,41,415.00
2022,08,15,10,42,415.90
2022,08,15,10,43,417.00
2022,08,15,10,44,474.30
2022,08,15,10,45,441.60
2022,08,15,10,46,458.10
2022,08,15,10,47,484.20
2022,08,15,10,48,539.40
2022,08,15,10,49,779.00
2022,08,15,10,50,715.90
2022,08,15,10,51,598.50
2022,08,15,10,52,571.00
2022,08,15,10,53,632.90
2022,08,15,10,54,659.00
2022,08,15,10,55,653.70
2022,08,15,10,56,511.30
2022,08,15,10,57,477.60
2022,08,15,10,58,464.30
2022,08,15,10,59,469.00
2022,08,15,11,00,522.90
2022,08,15,11,01,590.60
2022,08,15,11,02,601.00
2022,08,15,11,03,778.20
2022,08,15,11,04,809.00
2022,08,15,11,05,758.60
2022,08,15,11,06,454.50
2022,08,15,11,07,393.40
2022,08,15,11,08,397.60
2022,08,15,11,09,438.00
2022,08,15,11,10,432.00
2022,08,15,11,11,419.70
2022,08,15,11,12,401.00
2022,08,15,11,13,399.00
2022,08,15,11,14,399.00
2022,08,15,11,15,429.80
2022,08,15,11,16,503.00
2022,08,15,11,17,644.00
2022,08,15,11,18,767.90
2022,08,15,11,19,753.10
2022,08,15,11,20,737.60
2022,08,15,11,21,735.00
2022,08,15,11,22,740.20
2022,08,15,11,23,773.20
2022,08,15,11,24,765.10
2022,08,15,11,25,796.00
2022,08,15,11,26,690.40
2022,08,15,11,27,606.00
2022,08,15,11,28,583.40
2022,08,15,11,29,577.00
2022,08,15,11,30,695.40
2022,08,15,11,31,700.00
2022,08,15,11,32,719.60
2022,08,15,11,33,766.00
2022,08,15,11,34,686.60
2022,08,15,11,35,641.90
2022,08,15,11,36,672.10
2022,08,15,11,37,690.10
2022,08,15,11,38,694.00
2022,08,15,11,39,740.80
2022,08,15,11,40,763.00
2022,08,15,11,41,737.30
2022,08,15,11,42,721.60
2022,08,15,11,43,764.40
2022,08,15,11,44,728.40
2022,08,15,11,45,748.70
2022,08,15,11,46,769.00
2022,08,15,11,47,769.10
2022,08,15,11,48,740.00
2022,08,15,11,49,687.00
2022,08,15,11,50,670.40
2022,08,15,11,51,671.30
2022,08,15,11,52,600.60
2022,08,15,11,53,517.00
2022,08,15,11,54,537.60
2022,08,15,11,55,552.00
2022,08,15,11,56,555.30
2022,08,15,11,57,580.80
2022,08,15,11,58,624.00
2022,08,15,11,59,624.00
2022,08,15,12,00,624.00
2022,08,15,12,01,632.30
2022,08,15,12,02,691.50
2022,08,15,12,03,716.40
2022,08,15,12,04,772.10
2022,08,15,12,05,763.50
2022,08,15,12,06,751.00
2022,08,15,12,07,742.00
2022,08,15,12,08,673.60
2022,08,15,12,09,682.40
2022,08,15,12,10,726.00
2022,08,15,12,11,726.00
2022,08,15,12,12,694.50
2022,08,15,12,13,733.20
2022,08,15,12,14,765.00
2022,08,15,12,15,794.10
2022,08,15,12,16,789.00
2022,08,15,12,17,789.00
2022,08,15,12,18,751.70
2022,08,15,12,19,726.00
2022,08,15,12,20,713.60
2022,08,15,12,21,726.00
2022,08,15,12,22,731.80
2022,08,15,12,23,754.00
2022,08,15,12,24,739.30
2022,08,15,12,25,725.10
2022,08,15,12,26,723.40
2022,08,15,12,27,712.00
2022,08,15,12,28,715.00
2022,08,15,12,29,718.40
2022,08,15,12,30,645.10
2022,08,15,12,31,696.00
2022,08,15,12,32,705.80
2022,08,15,12,33,711.10
2022,08,15,12,34,714.70
2022,08,15,12,35,723.00
2022,08,15,12,36,727.70
2022,08,15,12,37,742.30
2022,08,15,12,38,728.30
2022,08,15,12,39,734.10
2022,08,15,12,40,728.00
2022,08,15,12,41,722.10
2022,08,15,12,42,713.70
2022,08,15,12,43,711.10
2022,08,15,12,44,732.50
2022,08,15,12,45,755.90
2022,08,15,12,46,697.70
2022,08,15,12,47,679.90
2022,08,15,12,48,746.40
2022,08,15,12,49,770.40
2022,08,15,12,50,762.70
2022,08,15,12,51,744.90
2022,08,15,12,52,741.00
2022,08,15,12,53,769.70
2022,08,15,12,54,794.00
2022,08,15,12,55,799.80
2022,08,15,12,56,761.00
2022,08,15,12,57,715.10
2022,08,15,12,58,694.30
2022,08,15,12,59,647.80
2022,08,15,13,00,620.60
2022,08,15,13,01,602.40
2022,08,15,13,02,596.60
2022,08,15,13,03,602.30
2022,08,15,13,04,601.30
2022,08,15,13,05,611.40
2022,08,15,13,06,659.40
2022,08,15,13,07,652.30
2022,08,15,13,08,686.10
2022,08,15,13,09,741.70
2022,08,15,13,10,780.00
2022,08,15,13,11,821.60
2022,08,15,13,12,874.60
2022,08,15,13,13,880.10
2022,08,15,13,14,846.00
2022,08,15,13,15,811.30
2022,08,15,13,16,798.70
2022,08,15,13,17,814.10
2022,08,15,13,18,835.90
2022,08,15,13,19,841.30
2022,08,15,13,20,841.60
2022,08,15,13,21,854.40
2022,08,15,13,22,856.00
2022,08,15,13,23,856.00
2022,08,15,13,24,824.90
2022,08,15,13,25,737.10
2022,08,15,13,26,717.00
2022,08,15,13,27,766.10
2022,08,15,13,28,831.30
2022,08,15,13,29,842.30
2022,08,15,13,30,856.90
2022,08,15,13,31,906.00
2022,08,15,13,32,902.90
2022,08,15,13,33,911.00
2022,08,15,13,34,898.10
2022,08,15,13,35,889.20
2022,08,15,13,36,839.70
2022,08,15,13,37,812.00
2022,08,15,13,38,693.80
2022,08,15,13,39,656.50
2022,08,15,13,40,591.00
2022,08,15,13,41,624.80
2022,08,15,13,42,707.90
2022,08,15,13,43,687.10
2022,08,15,13,44,664.00
2022,08,15,13,45,664.00
2022,08,15,13,46,686.60
2022,08,15,13,47,687.70
2022,08,15,13,48,702.70
2022,08,15,13,49,829.10
2022,08,15,13,50,813.70
2022,08,15,13,51,800.30
2022,08,15,13,52,845.30
2022,08,15,13,53,844.80
2022,08,15,13,54,817.80
2022,08,15,13,55,778.50
2022,08,15,13,56,783.70
2022,08,15,13,57,788.00
2022,08,15,13,58,791.90
2022,08,15,13,59,805.20
2022,08,15,14,00,809.00
2022,08,15,14,01,809.00
2022,08,15,14,02,737.20
2022,08,15,14,03,723.30
2022,08,15,14,04,728.90
2022,08,15,14,05,736.40
2022,08,15,14,06,708.00
2022,08,15,14,07,673.30
2022,08,15,14,08,588.10
2022,08,15,14,09,604.70
2022,08,15,14,10,622.80
2022,08,15,14,11,617.10
2022,08,15,14,12,615.00
2022,08,15,14,13,610.40
2022,08,15,14,14,624.40
2022,08,15,14,15,689.70
2022,08,15,14,16,629.00
2022,08,15,14,17,604.10
2022,08,15,14,18,573.00
2022,08,15,14,19,573.00
2022,08,15,14,20,499.10
2022,08,15,14,21,473.60
2022,08,15,14,22,527.60
2022,08,15,14,23,510.00
2022,08,15,14,24,562.90
2022,08,15,14,25,711.40
2022,08,15,14,26,721.40
2022,08,15,14,27,759.50
2022,08,15,14,28,799.60
2022,08,15,14,29,794.50
2022,08,15,14,30,759.90
2022,08,15,14,31,727.20
2022,08,15,14,32,719.70
2022,08,15,14,33,705.70
2022,08,15,14,34,705.20
2022,08,15,14,35,729.70
2022,08,15,14,36,741.10
2022,08,15,14,37,772.90
2022,08,15,14,38,779.40
2022,08,15,14,39,784.20
2022,08,15,14,40,790.70
2022,08,15,14,41,797.50
2022,08,15,14,42,807.90
2022,08,15,14,43,828.00
2022,08,15,14,44,828.00
2022,08,15,14,45,784.40
2022,08,15,14,46,774.90
2022,08,15,14,47,783.20
2022,08,15,14,48,737.00
2022,08,15,14,49,679.00
2022,08,15,14,50,471.60
2022,08,15,14,51,493.60
2022,08,15,14,52,541.00
2022,08,15,14,53,541.00
2022,08,15,14,54,541.00
2022,08,15,14,55,541.00
2022,08,15,14,56,802.10
2022,08,15,14,57,785.60
2022,08,15,14,58,507.50
2022,08,15,14,59,513.40
2022,08,15,15,00,501.70
2022,08,15,15,01,516.40
2022,08,15,15,02,525.30
2022,08,15,15,03,534.00
2022,08,15,15,04,484.60
2022,08,15,15,05,524.70
2022,08,15,15,06,450.00
2022,08,15,15,07,451.50
2022,08,15,15,08,450.90
2022,08,15,15,09,433.90
2022,08,15,15,10,416.70
2022,08,15,15,11,410.90
2022,08,15,15,12,408.40
2022,08,15,15,13,404.30
2022,08,15,15,14,403.70
2022,08,15,15,15,401.70
2022,08,15,15,16,404.00
2022,08,15,15,17,412.10
2022,08,15,15,18,431.80
2022,08,15,15,19,447.20
2022,08,15,15,20,460.90
2022,08,15,15,21,480.20
2022,08,15,15,22,467.00
2022,08,15,15,23,472.70
2022,08,15,15,24,473.30
2022,08,15,15,25,451.00
2022,08,15,15,26,440.20
2022,08,15,15,27,431.00
2022,08,15,15,28,436.00
2022,08,15,15,29,468.10
2022,08,15,15,30,496.30
2022,08,15,15,31,513.70
2022,08,15,15,32,699.30
2022,08,15,15,33,705.00
2022,08,15,15,34,705.00
2022,08,15,15,35,544.20
2022,08,15,15,36,380.50
2022,08,15,15,37,452.40
2022,08,15,15,38,510.10
2022,08,15,15,39,514.10
2022,08,15,15,40,488.30
2022,08,15,15,41,499.10
2022,08,15,15,42,521.70
2022,08,15,15,43,545.00
2022,08,15,15,44,550.60
2022,08,15,15,45,549.70
2022,08,15,15,46,555.90
2022,08,15,15,47,568.40
2022,08,15,15,48,512.40
2022,08,15,15,49,429.00
2022,08,15,15,50,429.00
2022,08,15,15,51,376.80
2022,08,15,15,52,292.30
2022,08,15,15,53,301.10
2022,08,15,15,54,295.60
2022,08,15,15,55,299.30
2022,08,15,15,56,330.00
2022,08,15,15,57,344.70
2022,08,15,15,58,371.30
2022,08,15,15,59,396.00
2022,08,15,16,00,407.10
2022,08,15,16,01,422.20
2022,08,15,16,02,450.50
2022,08,15,16,03,464.20
2022,08,15,16,04,472.00
2022,08,15,16,05,442.30
2022,08,15,16,06,443.30
2022,08,15,16,07,444.00
2022,08,15,16,08,448.40
2022,08,15,16,09,453.30
2022,08,15,16,10,449.10
2022,08,15,16,11,468.20
2022,08,15,16,12,475.00
2022,08,15,16,13,491.90
2022,08,15,16,14,514.10
2022,08,15,16,15,544.30
2022,08,15,16,16,531.20
2022,08,15,16,17,529.40
2022,08,15,16,18,517.40
2022,08,15,16,19,491.70
2022,08,15,16,20,472.40
2022,08,15,16,21,525.90
2022,08,15,16,22,514.10
2022,08,15,16,23,497.50
2022,08,15,16,24,509.60
2022,08,15,16,25,517.00
2022,08,15,16,26,506.90
2022,08,15,16,27,448.20
2022,08,15,16,28,368.70
2022,08,15,16,29,328.20
2022,08,15,16,30,322.00
2022,08,15,16,31,317.80
2022,08,15,16,32,310.80
2022,08,15,16,33,295.10
2022,08,15,16,34,280.20
2022,08,15,16,35,272.80
2022,08,15,16,36,274.10
2022,08,15,16,37,288.10
2022,08,15,16,38,286.30
2022,08,15,16,39,290.60
2022,08,15,16,40,317.30
2022,08,15,16,41,338.00
2022,08,15,16,42,339.70
2022,08,15,16,43,319.70
2022,08,15,16,44,306.90
2022,08,15,16,45,296.70
2022,08,15,16,46,295.70
2022,08,15,16,47,289.30
2022,08,15,16,48,262.50
2022,08,15,16,49,248.40
2022,08,15,16,50,237.70
2022,08,15,16,51,232.50
2022,08,15,16,52,229.60
2022,08,15,16,53,227.90
2022,08,15,16,54,236.30
2022,08,15,16,55,268.20
2022,08,15,16,56,261.80
2022,08,15,16,57,233.90
2022,08,15,16,58,232.90
2022,08,15,16,59,238.80
2022,08,15,17,00,242.20
2022,08,15,17,01,244.60
2022,08,15,17,02,243.60
2022,08,15,17,03,233.30
2022,08,15,17,04,224.30
2022,08,15,17,05,218.30
2022,08,15,17,06,215.60
2022,08,15,17,07,212.60
2022,08,15,17,08,209.70
2022,08,15,17,09,204.80
2022,08,15,17,10,200.30